{"data":{"norad_id":48444,"epoch":"2026-05-25T02:09:07.119072Z","epoch_age_seconds":67574,"freshness":"FRESH","line1":"1 48444U 21040S   26145.08966573 -.00000583  00000+0 -70319-5 0  9995","line2":"2 48444  53.1592 182.8387 0001353 102.8406 257.2746 15.31694254278382","mean_motion":15.31694254,"eccentricity":0.0001353,"inclination_deg":53.1592,"raan_deg":182.8387,"arg_perigee_deg":102.8406,"mean_anomaly_deg":257.2746,"bstar":-7.0319e-6,"rev_number":27838,"period_min":94.013540642296,"perigee_km":469.83046843125,"apogee_km":471.68377918115,"semimajor_km":6848.8941238062,"source":"CELESTRAK","updated_at":"2026-05-25T13:38:16.717040Z"}}